Preview of NWS' New Version of Forecast
This preview is not operational and should not be used for support decisions.

Regional Weather Roundup (RWR)

Issued by National Weather Service (NWS)

                            
000
ASUS46 KPQR 240710
RWROR 

OREGON REGIONAL WEATHER ROUNDUP
NATIONAL WEATHER SERVICE PORTLAND OR
1200 AM PDT SAT AUG 24 2019

NOTE: "FAIR" INDICATES FEW OR NO CLOUDS BELOW 12,000 FEET WITH
NO SIGNIFICANT WEATHER AND/OR OBSTRUCTIONS TO VISIBILITY.

ORZ001>013-240800-
NORTHWEST OREGON

  
CITY           SKY/WX    TMP DP  RH WIND       PRES   REMARKS
ASTORIA        CLOUDY    60  55  83 NW7       29.95R                  
TILLAMOOK      PTCLDY    52  50  93 SE3       29.97S                  
NEWPORT        PTCLDY    52  50  93 CALM      29.99R                  
FLORENCE       FAIR      54  50  87 CALM      29.95R                  
PORTLAND       PTCLDY    67  52  58 NW12      29.91S                  
VANCOUVER WA   PTCLDY    66  51  58 NW3       29.91R                  
SCAPPOOSE      MOCLDY    64  51  62 N3        29.91R                  
HILLSBORO      PTCLDY    63  48  58 W7        29.92R                  
AURORA         CLEAR     66  51  58 N6        29.93R                  
MCMINNVILLE    CLEAR     60  52  74 W7        29.92R                  
SALEM          CLEAR     65  50  58 N3        29.91R                  
CORVALLIS      CLEAR     62  51  67 NW12      29.92R                  
EUGENE         CLEAR     65  52  62 CALM      29.92R                  
CRESWELL       PTCLDY    57  55  94 CALM      29.91R                  
$$

ORZ021-028-240800-
SOUTHWEST OREGON

  
CITY           SKY/WX    TMP DP  RH WIND       PRES   REMARKS
NORTH BEND     PTCLDY    58  54  86 N8        29.98R                  
BROOKINGS      CLEAR     55  53  93 NW3       29.90R                  
ROSEBURG       CLEAR     67  54  63 CALM      29.90R                  
SEXTON SUMMIT  CLEAR     63  43  48 N7        30.01S                  
GRANTS PASS    FAIR      64  50  59 CALM      29.92S                  
MEDFORD        CLEAR     73  48  41 CALM      29.89R                  
$$

ORZ014>016-041-240800-
COLUMBIA GORGE

  
CITY           SKY/WX    TMP DP  RH WIND       PRES   REMARKS
TROUTDALE      PTCLDY    66  53  63 W5        29.91R                  
HOOD RIVER     CLOUDY    70  54  56 NW8       29.87R                  
THE DALLES     CLOUDY    75  51  43 W18G25    29.82R                  
$$

ORZ029>031-041-044-049-050-061>064-502-503-505>511-240800-
EASTERN OREGON

  
CITY           SKY/WX    TMP DP  RH WIND       PRES   REMARKS
MADRAS         CLEAR     59  45  58 CALM      29.93R                  
REDMOND        PTCLDY    58  44  60 CALM      29.93R                  
BEND           PTCLDY    64  46  52 W3        29.95R                  
PRINEVILLE     PTCLDY    57  45  62 CALM      29.94R                  
KLAMATH FALLS  CLEAR     58  49  72 CALM      30.01S                  
LAKEVIEW       PTCLDY    54  43  66 NE5       30.04R                  
HERMISTON      CLOUDY    71  46  40 S6        29.77S                  
PENDLETON      MOCLDY    69  47  45 S7        29.82R                  
JOHN DAY       CLEAR     63  34  33 E6        29.96S                  
MEACHAM        MOCLDY    54  43  66 CALM      29.96R                  
LA GRANDE      MOCLDY    63  45  51 CALM      29.90F                  
BAKER CITY     PTCLDY    56  48  74 CALM      29.93S                  
BURNS          PTCLDY    57  32  38 W6        29.98R                  
ROME             N/A     60  25  26 SW6       29.97R                  
ONTARIO        PTCLDY    66  50  56 CALM      29.87S                  
$$